Year,Month,Day,Hour,Minute,Value (Times are PST for windspeed in km/hr)
2015,12,04,00,00,0.80
2015,12,04,00,01,0.70
2015,12,04,00,02,0.50
2015,12,04,00,03,0.20
2015,12,04,00,04,0.10
2015,12,04,00,05,0.00
2015,12,04,00,06,0.00
2015,12,04,00,07,0.60
2015,12,04,00,08,0.60
2015,12,04,00,09,1.10
2015,12,04,00,10,0.80
2015,12,04,00,11,1.20
2015,12,04,00,12,0.30
2015,12,04,00,13,0.00
2015,12,04,00,14,0.00
2015,12,04,00,15,0.20
2015,12,04,00,16,0.40
2015,12,04,00,17,0.00
2015,12,04,00,18,0.00
2015,12,04,00,19,0.00
2015,12,04,00,20,0.00
2015,12,04,00,21,1.10
2015,12,04,00,22,1.20
2015,12,04,00,23,0.20
2015,12,04,00,24,0.00
2015,12,04,00,25,0.00
2015,12,04,00,26,0.00
2015,12,04,00,27,0.30
2015,12,04,00,28,0.00
2015,12,04,00,29,0.80
2015,12,04,00,30,0.20
2015,12,04,00,31,0.00
2015,12,04,00,32,0.00
2015,12,04,00,33,0.00
2015,12,04,00,34,0.00
2015,12,04,00,35,0.00
2015,12,04,00,36,0.00
2015,12,04,00,37,0.00
2015,12,04,00,38,0.00
2015,12,04,00,39,0.00
2015,12,04,00,40,0.00
2015,12,04,00,41,0.00
2015,12,04,00,42,0.00
2015,12,04,00,43,0.00
2015,12,04,00,44,0.10
2015,12,04,00,45,0.00
2015,12,04,00,46,0.00
2015,12,04,00,47,0.00
2015,12,04,00,48,0.20
2015,12,04,00,49,0.10
2015,12,04,00,50,0.10
2015,12,04,00,51,0.10
2015,12,04,00,52,0.60
2015,12,04,00,53,0.50
2015,12,04,00,54,0.30
2015,12,04,00,55,0.20
2015,12,04,00,56,0.00
2015,12,04,00,57,0.00
2015,12,04,00,58,0.00
2015,12,04,00,59,0.00
2015,12,04,01,00,0.00
2015,12,04,01,01,0.00
2015,12,04,01,02,0.00
2015,12,04,01,03,0.00
2015,12,04,01,04,0.00
2015,12,04,01,05,0.00
2015,12,04,01,06,0.00
2015,12,04,01,07,0.00
2015,12,04,01,08,0.00
2015,12,04,01,09,0.00
2015,12,04,01,10,0.00
2015,12,04,01,11,0.00
2015,12,04,01,12,0.00
2015,12,04,01,13,0.00
2015,12,04,01,14,0.00
2015,12,04,01,15,0.20
2015,12,04,01,16,0.60
2015,12,04,01,17,1.10
2015,12,04,01,18,0.70
2015,12,04,01,19,1.20
2015,12,04,01,20,1.50
2015,12,04,01,21,1.10
2015,12,04,01,22,0.20
2015,12,04,01,23,0.00
2015,12,04,01,24,0.00
2015,12,04,01,25,0.10
2015,12,04,01,26,0.70
2015,12,04,01,27,0.70
2015,12,04,01,28,0.40
2015,12,04,01,29,0.00
2015,12,04,01,30,0.00
2015,12,04,01,31,0.50
2015,12,04,01,32,0.00
2015,12,04,01,33,0.00
2015,12,04,01,34,0.00
2015,12,04,01,35,0.00
2015,12,04,01,36,0.90
2015,12,04,01,37,2.10
2015,12,04,01,38,1.50
2015,12,04,01,39,0.20
2015,12,04,01,40,0.00
2015,12,04,01,41,0.00
2015,12,04,01,42,0.90
2015,12,04,01,43,1.50
2015,12,04,01,44,0.90
2015,12,04,01,45,0.00
2015,12,04,01,46,0.00
2015,12,04,01,47,0.00
2015,12,04,01,48,0.20
2015,12,04,01,49,0.90
2015,12,04,01,50,0.30
2015,12,04,01,51,0.30
2015,12,04,01,52,0.20
2015,12,04,01,53,0.00
2015,12,04,01,54,0.50
2015,12,04,01,55,0.20
2015,12,04,01,56,0.20
2015,12,04,01,57,1.00
2015,12,04,01,58,0.20
2015,12,04,01,59,0.00
2015,12,04,02,00,0.00
2015,12,04,02,01,0.20
2015,12,04,02,02,1.10
2015,12,04,02,03,0.50
2015,12,04,02,04,0.50
2015,12,04,02,05,0.00
2015,12,04,02,06,0.00
2015,12,04,02,07,0.00
2015,12,04,02,08,0.00
2015,12,04,02,09,0.00
2015,12,04,02,10,0.00
2015,12,04,02,11,0.00
2015,12,04,02,12,0.60
2015,12,04,02,13,1.20
2015,12,04,02,14,0.50
2015,12,04,02,15,0.30
2015,12,04,02,16,0.50
2015,12,04,02,17,0.80
2015,12,04,02,18,1.30
2015,12,04,02,19,1.70
2015,12,04,02,20,1.20
2015,12,04,02,21,1.00
2015,12,04,02,22,1.40
2015,12,04,02,23,1.20
2015,12,04,02,24,0.90
2015,12,04,02,25,0.30
2015,12,04,02,26,0.00
2015,12,04,02,27,0.00
2015,12,04,02,28,0.00
2015,12,04,02,29,0.00
2015,12,04,02,30,0.20
2015,12,04,02,31,0.80
2015,12,04,02,32,1.10
2015,12,04,02,33,1.70
2015,12,04,02,34,1.30
2015,12,04,02,35,1.60
2015,12,04,02,36,1.10
2015,12,04,02,37,0.40
2015,12,04,02,38,0.10
2015,12,04,02,39,0.00
2015,12,04,02,40,0.10
2015,12,04,02,41,1.60
2015,12,04,02,42,1.20
2015,12,04,02,43,0.40
2015,12,04,02,44,0.80
2015,12,04,02,45,1.10
2015,12,04,02,46,1.30
2015,12,04,02,47,1.50
2015,12,04,02,48,1.50
2015,12,04,02,49,0.20
2015,12,04,02,50,0.00
2015,12,04,02,51,0.50
2015,12,04,02,52,1.80
2015,12,04,02,53,2.30
2015,12,04,02,54,1.80
2015,12,04,02,55,2.10
2015,12,04,02,56,1.50
2015,12,04,02,57,0.80
2015,12,04,02,58,1.40
2015,12,04,02,59,0.30
2015,12,04,03,00,0.20
2015,12,04,03,01,0.50
2015,12,04,03,02,0.60
2015,12,04,03,03,0.00
2015,12,04,03,04,0.10
2015,12,04,03,05,1.20
2015,12,04,03,06,0.70
2015,12,04,03,07,0.20
2015,12,04,03,08,0.00
2015,12,04,03,09,0.00
2015,12,04,03,10,0.00
2015,12,04,03,11,0.00
2015,12,04,03,12,0.00
2015,12,04,03,13,0.00
2015,12,04,03,14,0.00
2015,12,04,03,15,0.00
2015,12,04,03,16,0.00
2015,12,04,03,17,0.00
2015,12,04,03,18,0.00
2015,12,04,03,19,0.00
2015,12,04,03,20,0.00
2015,12,04,03,21,0.00
2015,12,04,03,22,0.00
2015,12,04,03,23,0.00
2015,12,04,03,24,2.50
2015,12,04,03,25,0.50
2015,12,04,03,26,0.00
2015,12,04,03,27,0.00
2015,12,04,03,28,1.20
2015,12,04,03,29,1.60
2015,12,04,03,30,2.60
2015,12,04,03,31,2.80
2015,12,04,03,32,2.60
2015,12,04,03,33,2.20
2015,12,04,03,34,3.20
2015,12,04,03,35,3.10
2015,12,04,03,36,3.70
2015,12,04,03,37,5.90
2015,12,04,03,38,4.60
2015,12,04,03,39,4.30
2015,12,04,03,40,3.90
2015,12,04,03,41,3.10
2015,12,04,03,42,2.40
2015,12,04,03,43,1.90
2015,12,04,03,44,3.40
2015,12,04,03,45,3.70
2015,12,04,03,46,2.90
2015,12,04,03,47,2.90
2015,12,04,03,48,2.80
2015,12,04,03,49,2.40
2015,12,04,03,50,3.50
2015,12,04,03,51,3.50
2015,12,04,03,52,4.10
2015,12,04,03,53,2.10
2015,12,04,03,54,2.20
2015,12,04,03,55,2.90
2015,12,04,03,56,4.20
2015,12,04,03,57,2.50
2015,12,04,03,58,1.40
2015,12,04,03,59,0.50
2015,12,04,04,00,1.50
2015,12,04,04,01,2.40
2015,12,04,04,02,1.90
2015,12,04,04,03,0.90
2015,12,04,04,04,0.00
2015,12,04,04,05,0.10
2015,12,04,04,06,1.70
2015,12,04,04,07,0.00
2015,12,04,04,08,0.50
2015,12,04,04,09,1.30
2015,12,04,04,10,0.00
2015,12,04,04,11,0.60
2015,12,04,04,12,0.30
2015,12,04,04,13,0.00
2015,12,04,04,14,0.00
2015,12,04,04,15,0.00
2015,12,04,04,16,0.30
2015,12,04,04,17,0.30
2015,12,04,04,18,0.20
2015,12,04,04,19,0.10
2015,12,04,04,20,0.00
2015,12,04,04,21,0.00
2015,12,04,04,22,0.00
2015,12,04,04,23,0.00
2015,12,04,04,24,0.00
2015,12,04,04,25,0.00
2015,12,04,04,26,0.00
2015,12,04,04,27,0.00
2015,12,04,04,28,0.00
2015,12,04,04,29,0.00
2015,12,04,04,30,0.00
2015,12,04,04,31,0.30
2015,12,04,04,32,0.20
2015,12,04,04,33,0.70
2015,12,04,04,34,0.60
2015,12,04,04,35,0.00
2015,12,04,04,36,0.00
2015,12,04,04,37,0.00
2015,12,04,04,38,0.00
2015,12,04,04,39,0.00
2015,12,04,04,40,0.00
2015,12,04,04,41,0.00
2015,12,04,04,42,0.00
2015,12,04,04,43,0.00
2015,12,04,04,44,0.00
2015,12,04,04,45,0.20
2015,12,04,04,46,1.50
2015,12,04,04,47,1.50
2015,12,04,04,48,1.20
2015,12,04,04,49,1.10
2015,12,04,04,50,0.70
2015,12,04,04,51,0.90
2015,12,04,04,52,1.00
2015,12,04,04,53,0.80
2015,12,04,04,54,0.10
2015,12,04,04,55,0.10
2015,12,04,04,56,0.10
2015,12,04,04,57,0.00
2015,12,04,04,58,0.00
2015,12,04,04,59,0.00
2015,12,04,05,00,0.10
2015,12,04,05,01,0.00
2015,12,04,05,02,0.20
2015,12,04,05,03,0.60
2015,12,04,05,04,1.50
2015,12,04,05,05,0.20
2015,12,04,05,06,0.00
2015,12,04,05,07,0.00
2015,12,04,05,08,0.30
2015,12,04,05,09,1.90
2015,12,04,05,10,1.80
2015,12,04,05,11,1.30
2015,12,04,05,12,0.50
2015,12,04,05,13,0.20
2015,12,04,05,14,1.00
2015,12,04,05,15,1.20
2015,12,04,05,16,0.10
2015,12,04,05,17,0.20
2015,12,04,05,18,1.50
2015,12,04,05,19,1.60
2015,12,04,05,20,1.50
2015,12,04,05,21,1.30
2015,12,04,05,22,1.10
2015,12,04,05,23,1.10
2015,12,04,05,24,0.00
2015,12,04,05,25,0.00
2015,12,04,05,26,0.00
2015,12,04,05,27,0.00
2015,12,04,05,28,0.00
2015,12,04,05,29,0.00
2015,12,04,05,30,0.00
2015,12,04,05,31,0.00
2015,12,04,05,32,0.00
2015,12,04,05,33,0.00
2015,12,04,05,34,0.00
2015,12,04,05,35,0.00
2015,12,04,05,36,0.70
2015,12,04,05,37,1.60
2015,12,04,05,38,0.60
2015,12,04,05,39,0.00
2015,12,04,05,40,0.00
2015,12,04,05,41,0.00
2015,12,04,05,42,0.00
2015,12,04,05,43,0.00
2015,12,04,05,44,0.00
2015,12,04,05,45,0.00
2015,12,04,05,46,0.00
2015,12,04,05,47,0.00
2015,12,04,05,48,0.00
2015,12,04,05,49,0.00
2015,12,04,05,50,0.10
2015,12,04,05,51,0.90
2015,12,04,05,52,0.70
2015,12,04,05,53,0.50
2015,12,04,05,54,0.00
2015,12,04,05,55,0.00
2015,12,04,05,56,0.00
2015,12,04,05,57,0.00
2015,12,04,05,58,0.00
2015,12,04,05,59,0.00
2015,12,04,06,00,0.00
2015,12,04,06,01,0.00
2015,12,04,06,02,0.00
2015,12,04,06,03,0.70
2015,12,04,06,04,1.20
2015,12,04,06,05,1.00
2015,12,04,06,06,0.10
2015,12,04,06,07,0.00
2015,12,04,06,08,1.00
2015,12,04,06,09,0.20
2015,12,04,06,10,0.00
2015,12,04,06,11,0.00
2015,12,04,06,12,0.00
2015,12,04,06,13,0.00
2015,12,04,06,14,0.00
2015,12,04,06,15,0.00
2015,12,04,06,16,0.00
2015,12,04,06,17,0.50
2015,12,04,06,18,1.10
2015,12,04,06,19,0.00
2015,12,04,06,20,0.00
2015,12,04,06,21,0.00
2015,12,04,06,22,0.00
2015,12,04,06,23,0.00
2015,12,04,06,24,0.10
2015,12,04,06,25,0.30
2015,12,04,06,26,1.20
2015,12,04,06,27,0.60
2015,12,04,06,28,1.00
2015,12,04,06,29,0.80
2015,12,04,06,30,1.00
2015,12,04,06,31,1.30
2015,12,04,06,32,0.40
2015,12,04,06,33,0.80
2015,12,04,06,34,1.20
2015,12,04,06,35,0.00
2015,12,04,06,36,0.00
2015,12,04,06,37,0.00
2015,12,04,06,38,0.00
2015,12,04,06,39,0.00
2015,12,04,06,40,0.00
2015,12,04,06,41,0.00
2015,12,04,06,42,0.00
2015,12,04,06,43,0.00
2015,12,04,06,44,1.40
2015,12,04,06,45,0.50
2015,12,04,06,46,0.00
2015,12,04,06,47,0.00
2015,12,04,06,48,0.40
2015,12,04,06,49,1.10
2015,12,04,06,50,0.60
2015,12,04,06,51,1.20
2015,12,04,06,52,1.40
2015,12,04,06,53,0.10
2015,12,04,06,54,0.00
2015,12,04,06,55,0.00
2015,12,04,06,56,0.20
2015,12,04,06,57,0.70
2015,12,04,06,58,1.40
2015,12,04,06,59,1.50
2015,12,04,07,00,2.10
2015,12,04,07,01,1.90
2015,12,04,07,02,1.30
2015,12,04,07,03,1.30
2015,12,04,07,04,0.70
2015,12,04,07,05,0.00
2015,12,04,07,06,0.00
2015,12,04,07,07,0.00
2015,12,04,07,08,0.00
2015,12,04,07,09,0.00
2015,12,04,07,10,0.00
2015,12,04,07,11,0.00
2015,12,04,07,12,0.00
2015,12,04,07,13,0.00
2015,12,04,07,14,0.00
2015,12,04,07,15,0.00
2015,12,04,07,16,0.00
2015,12,04,07,17,0.00
2015,12,04,07,18,0.00
2015,12,04,07,19,0.00
2015,12,04,07,20,0.00
2015,12,04,07,21,0.00
2015,12,04,07,22,0.00
2015,12,04,07,23,0.40
2015,12,04,07,24,0.10
2015,12,04,07,25,0.00
2015,12,04,07,26,0.00
2015,12,04,07,27,0.00
2015,12,04,07,28,0.00
2015,12,04,07,29,0.00
2015,12,04,07,30,0.00
2015,12,04,07,31,0.00
2015,12,04,07,32,0.00
2015,12,04,07,33,0.00
2015,12,04,07,34,0.50
2015,12,04,07,35,0.50
2015,12,04,07,36,0.50
2015,12,04,07,37,0.00
2015,12,04,07,38,0.00
2015,12,04,07,39,0.40
2015,12,04,07,40,0.90
2015,12,04,07,41,1.10
2015,12,04,07,42,0.00
2015,12,04,07,43,0.00
2015,12,04,07,44,0.00
2015,12,04,07,45,0.00
2015,12,04,07,46,0.20
2015,12,04,07,47,1.10
2015,12,04,07,48,1.20
2015,12,04,07,49,0.90
2015,12,04,07,50,1.60
2015,12,04,07,51,0.40
2015,12,04,07,52,0.00
2015,12,04,07,53,0.00
2015,12,04,07,54,0.00
2015,12,04,07,55,0.00
2015,12,04,07,56,0.00
2015,12,04,07,57,0.10
2015,12,04,07,58,0.20
2015,12,04,07,59,1.70
2015,12,04,08,00,1.00
2015,12,04,08,01,0.40
2015,12,04,08,02,0.50
2015,12,04,08,03,1.80
2015,12,04,08,04,1.90
2015,12,04,08,05,0.50
2015,12,04,08,06,0.20
2015,12,04,08,07,0.90
2015,12,04,08,08,1.30
2015,12,04,08,09,1.50
2015,12,04,08,10,0.40
2015,12,04,08,11,1.10
2015,12,04,08,12,0.50
2015,12,04,08,13,1.30
2015,12,04,08,14,1.50
2015,12,04,08,15,1.50
2015,12,04,08,16,1.20
2015,12,04,08,17,0.10
2015,12,04,08,18,0.00
2015,12,04,08,19,1.40
2015,12,04,08,20,0.80
2015,12,04,08,21,0.00
2015,12,04,08,22,0.10
2015,12,04,08,23,0.00
2015,12,04,08,24,0.20
2015,12,04,08,25,0.00
2015,12,04,08,26,1.50
2015,12,04,08,27,0.30
2015,12,04,08,28,3.70
2015,12,04,08,29,3.20
2015,12,04,08,30,2.50
2015,12,04,08,31,1.80
2015,12,04,08,32,0.90
2015,12,04,08,33,0.30
2015,12,04,08,34,0.40
2015,12,04,08,35,1.70
2015,12,04,08,36,0.00
2015,12,04,08,37,0.00
2015,12,04,08,38,0.00
2015,12,04,08,39,0.20
2015,12,04,08,40,2.00
2015,12,04,08,41,2.60
2015,12,04,08,42,1.30
2015,12,04,08,43,1.10
2015,12,04,08,44,2.30
2015,12,04,08,45,1.50
2015,12,04,08,46,1.60
2015,12,04,08,47,1.80
2015,12,04,08,48,1.20
2015,12,04,08,49,0.00
2015,12,04,08,50,0.10
2015,12,04,08,51,0.10
2015,12,04,08,52,1.20
2015,12,04,08,53,1.90
2015,12,04,08,54,1.60
2015,12,04,08,55,2.30
2015,12,04,08,56,2.70
2015,12,04,08,57,2.60
2015,12,04,08,58,1.90
2015,12,04,08,59,1.80
2015,12,04,09,00,3.20
2015,12,04,09,01,2.70
2015,12,04,09,02,2.50
2015,12,04,09,03,2.00
2015,12,04,09,04,1.10
2015,12,04,09,05,1.60
2015,12,04,09,06,1.20
2015,12,04,09,07,0.70
2015,12,04,09,08,0.10
2015,12,04,09,09,0.50
2015,12,04,09,10,0.10
2015,12,04,09,11,0.70
2015,12,04,09,12,0.00
2015,12,04,09,13,0.90
2015,12,04,09,14,1.50
2015,12,04,09,15,2.00
2015,12,04,09,16,2.70
2015,12,04,09,17,2.90
2015,12,04,09,18,3.00
2015,12,04,09,19,3.10
2015,12,04,09,20,4.10
2015,12,04,09,21,3.60
2015,12,04,09,22,3.60
2015,12,04,09,23,2.50
2015,12,04,09,24,3.00
2015,12,04,09,25,3.70
2015,12,04,09,26,4.80
2015,12,04,09,27,5.50
2015,12,04,09,28,4.90
2015,12,04,09,29,5.40
2015,12,04,09,30,5.70
2015,12,04,09,31,7.00
2015,12,04,09,32,3.80
2015,12,04,09,33,6.40
2015,12,04,09,34,6.40
2015,12,04,09,35,4.00
2015,12,04,09,36,5.80
2015,12,04,09,37,5.60
2015,12,04,09,38,4.00
2015,12,04,09,39,3.90
2015,12,04,09,40,3.10
2015,12,04,09,41,7.20
2015,12,04,09,42,3.90
2015,12,04,09,43,6.00
2015,12,04,09,44,6.60
2015,12,04,09,45,6.50
2015,12,04,09,46,8.10
2015,12,04,09,47,8.50
2015,12,04,09,48,4.20
2015,12,04,09,49,4.50
2015,12,04,09,50,8.20
2015,12,04,09,51,6.30
2015,12,04,09,52,5.40
2015,12,04,09,53,2.70
2015,12,04,09,54,2.10
2015,12,04,09,55,3.10
2015,12,04,09,56,3.40
2015,12,04,09,57,5.00
2015,12,04,09,58,5.40
2015,12,04,09,59,6.10
2015,12,04,10,00,3.70
2015,12,04,10,01,2.90
2015,12,04,10,02,2.30
2015,12,04,10,03,3.60
2015,12,04,10,04,2.90
2015,12,04,10,05,4.10
2015,12,04,10,06,3.40
2015,12,04,10,07,4.70
2015,12,04,10,08,5.70
2015,12,04,10,09,5.50
2015,12,04,10,10,5.60
2015,12,04,10,11,6.70
2015,12,04,10,12,6.00
2015,12,04,10,13,4.70
2015,12,04,10,14,4.20
2015,12,04,10,15,2.30
2015,12,04,10,16,1.30
2015,12,04,10,17,4.20
2015,12,04,10,18,3.40
2015,12,04,10,19,2.40
2015,12,04,10,20,2.40
2015,12,04,10,21,3.70
2015,12,04,10,22,4.30
2015,12,04,10,23,5.30
2015,12,04,10,24,3.80
2015,12,04,10,25,6.30
2015,12,04,10,26,5.10
2015,12,04,10,27,5.50
2015,12,04,10,28,3.30
2015,12,04,10,29,4.00
2015,12,04,10,30,5.80
2015,12,04,10,31,4.30
2015,12,04,10,32,3.20
2015,12,04,10,33,5.10
2015,12,04,10,34,3.70
2015,12,04,10,35,3.20
2015,12,04,10,36,4.30
2015,12,04,10,37,4.10
2015,12,04,10,38,2.90
2015,12,04,10,39,6.30
2015,12,04,10,40,4.00
2015,12,04,10,41,3.90
2015,12,04,10,42,4.60
2015,12,04,10,43,5.60
2015,12,04,10,44,4.40
2015,12,04,10,45,7.40
2015,12,04,10,46,4.50
2015,12,04,10,47,6.50
2015,12,04,10,48,6.00
2015,12,04,10,49,7.40
2015,12,04,10,50,5.40
2015,12,04,10,51,6.20
2015,12,04,10,52,6.10
2015,12,04,10,53,7.90
2015,12,04,10,54,6.10
2015,12,04,10,55,5.50
2015,12,04,10,56,3.90
2015,12,04,10,57,6.10
2015,12,04,10,58,4.80
2015,12,04,10,59,8.90
2015,12,04,11,00,10.60
2015,12,04,11,01,4.30
2015,12,04,11,02,6.40
2015,12,04,11,03,8.00
2015,12,04,11,04,8.90
2015,12,04,11,05,6.80
2015,12,04,11,06,7.70
2015,12,04,11,07,8.40
2015,12,04,11,08,8.90
2015,12,04,11,09,8.30
2015,12,04,11,10,6.20
2015,12,04,11,11,6.40
2015,12,04,11,12,6.90
2015,12,04,11,13,11.00
2015,12,04,11,14,6.80
2015,12,04,11,15,6.80
2015,12,04,11,16,8.60
2015,12,04,11,17,6.60
2015,12,04,11,18,6.80
2015,12,04,11,19,7.70
2015,12,04,11,20,6.20
2015,12,04,11,21,7.40
2015,12,04,11,22,8.10
2015,12,04,11,23,8.00
2015,12,04,11,24,10.30
2015,12,04,11,25,10.60
2015,12,04,11,26,8.50
2015,12,04,11,27,6.50
2015,12,04,11,28,7.50
2015,12,04,11,29,8.80
2015,12,04,11,30,11.20
2015,12,04,11,31,9.10
2015,12,04,11,32,8.50
2015,12,04,11,33,7.90
2015,12,04,11,34,6.70
2015,12,04,11,35,12.50
2015,12,04,11,36,13.10
2015,12,04,11,37,8.20
2015,12,04,11,38,8.70
2015,12,04,11,39,7.70
2015,12,04,11,40,6.30
2015,12,04,11,41,5.60
2015,12,04,11,42,10.10
2015,12,04,11,43,9.70
2015,12,04,11,44,7.20
2015,12,04,11,45,7.20
2015,12,04,11,46,5.10
2015,12,04,11,47,8.50
2015,12,04,11,48,9.30
2015,12,04,11,49,13.50
2015,12,04,11,50,11.10
2015,12,04,11,51,5.80
2015,12,04,11,52,7.00
2015,12,04,11,53,10.80
2015,12,04,11,54,9.20
2015,12,04,11,55,5.90
2015,12,04,11,56,10.10
2015,12,04,11,57,9.70
2015,12,04,11,58,12.00
2015,12,04,11,59,5.10
2015,12,04,12,00,7.20
2015,12,04,12,01,8.90
2015,12,04,12,02,7.40
2015,12,04,12,03,8.20
2015,12,04,12,04,7.40
2015,12,04,12,05,12.70
2015,12,04,12,06,7.90
2015,12,04,12,07,12.30
2015,12,04,12,08,9.60
2015,12,04,12,09,5.40
2015,12,04,12,10,8.70
2015,12,04,12,11,11.20
2015,12,04,12,12,9.70
2015,12,04,12,13,9.70
2015,12,04,12,14,9.50
2015,12,04,12,15,8.70
2015,12,04,12,16,7.40
2015,12,04,12,17,9.50
2015,12,04,12,18,9.00
2015,12,04,12,19,9.10
2015,12,04,12,20,6.90
2015,12,04,12,21,13.60
2015,12,04,12,22,13.50
2015,12,04,12,23,10.00
2015,12,04,12,24,5.20
2015,12,04,12,25,11.10
2015,12,04,12,26,10.70
2015,12,04,12,27,10.40
2015,12,04,12,28,10.60
2015,12,04,12,29,6.70
2015,12,04,12,30,6.40
2015,12,04,12,31,6.30
2015,12,04,12,32,5.20
2015,12,04,12,33,8.10
2015,12,04,12,34,9.60
2015,12,04,12,35,7.40
2015,12,04,12,36,7.10
2015,12,04,12,37,10.30
2015,12,04,12,38,8.30
2015,12,04,12,39,10.20
2015,12,04,12,40,8.50
2015,12,04,12,41,8.10
2015,12,04,12,42,6.00
2015,12,04,12,43,8.10
2015,12,04,12,44,7.60
2015,12,04,12,45,7.90
2015,12,04,12,46,8.50
2015,12,04,12,47,12.10
2015,12,04,12,48,5.60
2015,12,04,12,49,6.00
2015,12,04,12,50,5.50
2015,12,04,12,51,9.30
2015,12,04,12,52,8.70
2015,12,04,12,53,6.10
2015,12,04,12,54,7.70
2015,12,04,12,55,12.40
2015,12,04,12,56,14.80
2015,12,04,12,57,13.90
2015,12,04,12,58,13.10
2015,12,04,12,59,11.00
2015,12,04,13,00,10.00
2015,12,04,13,01,13.00
2015,12,04,13,02,8.00
2015,12,04,13,03,10.80
2015,12,04,13,04,10.60
2015,12,04,13,05,11.40
2015,12,04,13,06,11.10
2015,12,04,13,07,11.50
2015,12,04,13,08,12.70
2015,12,04,13,09,7.80
2015,12,04,13,10,11.40
2015,12,04,13,11,7.00
2015,12,04,13,12,6.70
2015,12,04,13,13,11.50
2015,12,04,13,14,11.30
2015,12,04,13,15,9.90
2015,12,04,13,16,10.10
2015,12,04,13,17,8.00
2015,12,04,13,18,8.00
2015,12,04,13,19,7.00
2015,12,04,13,20,11.30
2015,12,04,13,21,10.90
2015,12,04,13,22,7.80
2015,12,04,13,23,13.10
2015,12,04,13,24,11.10
2015,12,04,13,25,6.90
2015,12,04,13,26,9.00
2015,12,04,13,27,9.50
2015,12,04,13,28,8.10
2015,12,04,13,29,5.30
2015,12,04,13,30,7.20
2015,12,04,13,31,5.30
2015,12,04,13,32,4.30
2015,12,04,13,33,3.90
2015,12,04,13,34,2.50
2015,12,04,13,35,4.00
2015,12,04,13,36,7.40
2015,12,04,13,37,6.20
2015,12,04,13,38,3.70
2015,12,04,13,39,4.40
2015,12,04,13,40,6.40
2015,12,04,13,41,4.10
2015,12,04,13,42,5.00
2015,12,04,13,43,4.20
2015,12,04,13,44,7.20
2015,12,04,13,45,7.80
2015,12,04,13,46,5.20
2015,12,04,13,47,5.10
2015,12,04,13,48,5.10
2015,12,04,13,49,6.30
2015,12,04,13,50,6.40
2015,12,04,13,51,5.10
2015,12,04,13,52,6.80
2015,12,04,13,53,7.00
2015,12,04,13,54,4.50
2015,12,04,13,55,5.90
2015,12,04,13,56,5.40
2015,12,04,13,57,7.90
2015,12,04,13,58,6.50
2015,12,04,13,59,2.70
2015,12,04,14,00,6.10
2015,12,04,14,01,7.70
2015,12,04,14,02,5.50
2015,12,04,14,03,4.00
2015,12,04,14,04,6.30
2015,12,04,14,05,9.30
2015,12,04,14,06,6.50
2015,12,04,14,07,3.90
2015,12,04,14,08,4.50
2015,12,04,14,09,4.50
2015,12,04,14,10,3.50
2015,12,04,14,11,5.70
2015,12,04,14,12,9.90
2015,12,04,14,13,6.70
2015,12,04,14,14,4.40
2015,12,04,14,15,3.80
2015,12,04,14,16,3.10
2015,12,04,14,17,4.80
2015,12,04,14,18,5.00
2015,12,04,14,19,5.90
2015,12,04,14,20,4.40
2015,12,04,14,21,5.80
2015,12,04,14,22,6.10
2015,12,04,14,23,7.00
2015,12,04,14,24,4.70
2015,12,04,14,25,3.90
2015,12,04,14,26,3.90
2015,12,04,14,27,5.50
2015,12,04,14,28,5.70
2015,12,04,14,29,3.40
2015,12,04,14,30,2.80
2015,12,04,14,31,6.40
2015,12,04,14,32,6.10
2015,12,04,14,33,4.70
2015,12,04,14,34,5.20
2015,12,04,14,35,5.80
2015,12,04,14,36,3.80
2015,12,04,14,37,5.60
2015,12,04,14,38,6.20
2015,12,04,14,39,6.80
2015,12,04,14,40,8.00
2015,12,04,14,41,5.50
2015,12,04,14,42,6.90
2015,12,04,14,43,5.60
2015,12,04,14,44,5.10
2015,12,04,14,45,4.80
2015,12,04,14,46,6.00
2015,12,04,14,47,4.40
2015,12,04,14,48,5.60
2015,12,04,14,49,7.30
2015,12,04,14,50,6.00
2015,12,04,14,51,2.80
2015,12,04,14,52,4.90
2015,12,04,14,53,4.30
2015,12,04,14,54,4.20
2015,12,04,14,55,5.60
2015,12,04,14,56,4.60
2015,12,04,14,57,5.10
2015,12,04,14,58,4.00
2015,12,04,14,59,7.20
2015,12,04,15,00,8.80
2015,12,04,15,01,5.20
2015,12,04,15,02,4.10
2015,12,04,15,03,4.40
2015,12,04,15,04,7.10
2015,12,04,15,05,7.20
2015,12,04,15,06,4.30
2015,12,04,15,07,6.80
2015,12,04,15,08,8.10
2015,12,04,15,09,5.90
2015,12,04,15,10,5.60
2015,12,04,15,11,8.00
2015,12,04,15,12,5.20
2015,12,04,15,13,6.90
2015,12,04,15,14,8.50
2015,12,04,15,15,7.90
2015,12,04,15,16,8.90
2015,12,04,15,17,10.20
2015,12,04,15,18,6.40
2015,12,04,15,19,10.10
2015,12,04,15,20,7.40
2015,12,04,15,21,8.50
2015,12,04,15,22,7.20
2015,12,04,15,23,7.40
2015,12,04,15,24,6.60
2015,12,04,15,25,6.30
2015,12,04,15,26,5.30
2015,12,04,15,27,8.10
2015,12,04,15,28,7.30
2015,12,04,15,29,7.20
2015,12,04,15,30,8.00
2015,12,04,15,31,8.10
2015,12,04,15,32,8.20
2015,12,04,15,33,9.30
2015,12,04,15,34,7.70
2015,12,04,15,35,3.90
2015,12,04,15,36,6.00
2015,12,04,15,37,6.00
2015,12,04,15,38,6.70
2015,12,04,15,39,8.00
2015,12,04,15,40,8.70
2015,12,04,15,41,9.30
2015,12,04,15,42,9.40
2015,12,04,15,43,7.90
2015,12,04,15,44,7.70
2015,12,04,15,45,10.50
2015,12,04,15,46,8.70
2015,12,04,15,47,8.20
2015,12,04,15,48,7.80
2015,12,04,15,49,5.90
2015,12,04,15,50,6.70
2015,12,04,15,51,6.50
2015,12,04,15,52,9.30
2015,12,04,15,53,10.00
2015,12,04,15,54,8.20
2015,12,04,15,55,6.80
2015,12,04,15,56,5.40
2015,12,04,15,57,7.20
2015,12,04,15,58,8.50
2015,12,04,15,59,6.80
2015,12,04,16,00,6.80
2015,12,04,16,01,7.30
2015,12,04,16,02,6.70
2015,12,04,16,03,5.00
2015,12,04,16,04,6.40
2015,12,04,16,05,8.30
2015,12,04,16,06,8.70
2015,12,04,16,07,8.70
2015,12,04,16,08,7.30
2015,12,04,16,09,8.40
2015,12,04,16,10,9.70
2015,12,04,16,11,9.00
2015,12,04,16,12,9.20
2015,12,04,16,13,8.10
2015,12,04,16,14,9.50
2015,12,04,16,15,8.50
2015,12,04,16,16,9.90
2015,12,04,16,17,7.10
2015,12,04,16,18,7.40
2015,12,04,16,19,11.90
2015,12,04,16,20,7.60
2015,12,04,16,21,8.20
2015,12,04,16,22,7.70
2015,12,04,16,23,7.90
2015,12,04,16,24,4.40
2015,12,04,16,25,3.70
2015,12,04,16,26,2.40
2015,12,04,16,27,2.20
2015,12,04,16,28,1.90
2015,12,04,16,29,2.60
2015,12,04,16,30,2.60
2015,12,04,16,31,0.80
2015,12,04,16,32,0.60
2015,12,04,16,33,0.90
2015,12,04,16,34,1.00
2015,12,04,16,35,1.20
2015,12,04,16,36,2.00
2015,12,04,16,37,1.90
2015,12,04,16,38,1.90
2015,12,04,16,39,0.80
2015,12,04,16,40,0.40
2015,12,04,16,41,0.50
2015,12,04,16,42,2.50
2015,12,04,16,43,1.30
2015,12,04,16,44,1.60
2015,12,04,16,45,2.20
2015,12,04,16,46,2.40
2015,12,04,16,47,2.50
2015,12,04,16,48,3.30
2015,12,04,16,49,3.20
2015,12,04,16,50,1.70
2015,12,04,16,51,2.80
2015,12,04,16,52,2.60
2015,12,04,16,53,3.50
2015,12,04,16,54,3.60
2015,12,04,16,55,2.20
2015,12,04,16,56,2.30
2015,12,04,16,57,6.90
2015,12,04,16,58,4.40
2015,12,04,16,59,4.30
2015,12,04,17,00,3.70
2015,12,04,17,01,4.20
2015,12,04,17,02,7.40
2015,12,04,17,03,7.00
2015,12,04,17,04,6.10
2015,12,04,17,05,5.10
2015,12,04,17,06,9.50
2015,12,04,17,07,6.40
2015,12,04,17,08,5.60
2015,12,04,17,09,5.30
2015,12,04,17,10,5.70
2015,12,04,17,11,7.60
2015,12,04,17,12,9.70
2015,12,04,17,13,8.20
2015,12,04,17,14,5.80
2015,12,04,17,15,5.80
2015,12,04,17,16,4.50
2015,12,04,17,17,4.00
2015,12,04,17,18,5.40
2015,12,04,17,19,8.10
2015,12,04,17,20,8.30
2015,12,04,17,21,8.40
2015,12,04,17,22,6.50
2015,12,04,17,23,6.80
2015,12,04,17,24,5.00
2015,12,04,17,25,4.50
2015,12,04,17,26,5.30
2015,12,04,17,27,5.00
2015,12,04,17,28,6.10
2015,12,04,17,29,7.40
2015,12,04,17,30,4.50
2015,12,04,17,31,4.40
2015,12,04,17,32,4.20
2015,12,04,17,33,4.70
2015,12,04,17,34,4.50
2015,12,04,17,35,4.00
2015,12,04,17,36,4.00
2015,12,04,17,37,5.40
2015,12,04,17,38,3.90
2015,12,04,17,39,3.40
2015,12,04,17,40,3.30
2015,12,04,17,41,5.40
2015,12,04,17,42,4.20
2015,12,04,17,43,4.70
2015,12,04,17,44,4.20
2015,12,04,17,45,3.30
2015,12,04,17,46,3.60
2015,12,04,17,47,4.80
2015,12,04,17,48,4.30
2015,12,04,17,49,4.10
2015,12,04,17,50,6.40
2015,12,04,17,51,2.90
2015,12,04,17,52,5.70
2015,12,04,17,53,6.10
2015,12,04,17,54,4.90
2015,12,04,17,55,2.70
2015,12,04,17,56,4.30
2015,12,04,17,57,8.20
2015,12,04,17,58,5.30
2015,12,04,17,59,4.50
2015,12,04,18,00,4.50
2015,12,04,18,01,5.80
2015,12,04,18,02,4.80
2015,12,04,18,03,6.80
2015,12,04,18,04,6.10